Regional Weather Roundup
Issued by NWS Grand Forks, ND

Home | Current Version | Previous Version | Text Only | Print | Product List | Glossary On
Versions: 1 2 3 4 5 6 7 8 9 10 11 12 13 14 15 16 17 18 19 20 21 22 23 24 25 26 27 28 29 30 31 32 33 34 35 36 37 38 39 40 41 42 43 44 45 46 47 48 49 50
000
ASUS43 KFGF 030831
RWRFGF
PRAIRIE TO PINES  WEATHER ROUNDUP
NATIONAL WEATHER SERVICE EASTERN NORTH DAKOTA/GRAND FORKS ND
200 AM CST TUE MAR 03 2015

 **SATELLITE DATA USED TO AUGMENT SKY COVER AT AUTOMATED STATIONS**
 *****  WEATHER ACROSS EASTERN NORTH DAKOTA  *****

CITY           SKY/WX    TMP DP  RH WIND       PRES   REMARKS
GRAND FORKS    CLOUDY    24  18  77 SW8       29.74S WCI  15
GRAND FRKS AFB CLOUDY    24  17  74 NW14G23   29.73S WCI  12
GRAND FRKS NWS   N/A     23 N/A N/A W7          N/A  WCI  15
DEVILS LAKE    MOCLDY    16   9  73 NW20G28   29.76R WCI  -1
FARGO          CLOUDY    28  21  75 S17       29.73F WCI  16
WAHPETON ARPT  CLOUDY    27  21  80 S17G24    29.75F WCI  14
$$

 ***** WEATHER ACROSS CENTRAL AND WESTERN NORTH DAKOTA  *****

CITY           SKY/WX    TMP DP  RH WIND       PRES   REMARKS
BISMARCK       CLOUDY    18  11  74 NW20G30   29.89R WCI   2
MINOT          FLURRIES  11   4  73 W28G37    29.88S WCI -10
JAMESTOWN      CLOUDY    20  14  77 NW21G31   29.73F WCI   4
MINOT AFB      CLOUDY    10   7  85 NW33G39   29.87R BLWGSNOWWCI -13
GARRISON         N/A     13   6  74 NW28G41   29.88R WCI  -8
WILLISTON      CLOUDY    10   0  63 NW23G32   30.01R WCI -10
DICKINSON      FLURRIES  15   8  73 NW18G29   29.89R WCI  -2
HETTINGER      CLOUDY    16   8  71 N23G32    29.86R WCI  -2
$$

 *****  OTHER AIRPORT OBSERVATIONS IN OUR AREA  *****

CITY           SKY/WX    TMP DP  RH WIND       PRES   REMARKS
WALHALLA         N/A     18  14  86 NW21G28   29.74F WCI   1
GRAFTON AIRPOR NOT AVBL
VALLEY CITY AR FLURRIES  21  21 100 NW21G28   29.73S WCI   6
CANDO          CLOUDY    14   9  79 NW20G31   29.80R WCI  -3
CAVALIER APRT  FAIR      19  14  79 NW18G29   29.73S WCI   4
GWINNER        SUNNY     32  25  74 SW12      29.71F WCI  23
SHEYENNE NWR     N/A     27  22  80 S7        29.95S WCI  19
ROLLA          FLURRIES  10   7  85 NW32G43   29.77S WCI -12
 ***** THE ABOVE OBSERVATIONS ARE NON NWS ARE NOT QUALITY
       CONTROLLED AND MAY MIS-REPORT RAIN FOR SNOW...
$$

  *****  WEATHER ACROSS NORTHERN MINNESOTA  *****

CITY           SKY/WX    TMP DP  RH WIND       PRES   REMARKS
FLAG ISLAND    CLOUDY    19  16  86 S12       29.66F WCI   7
WARROAD        CLOUDY    25  19  80 SW12G18   29.68F WCI  14
ROSEAU         CLOUDY    27  19  74 SW17G23   29.68F WCI  14
HALLOCK        CLOUDY    21  18  86 W12       29.71F WCI   9
THF RVR FALLS  CLOUDY    25  21  86 SW20      29.71F WCI  11
BAUDETTE       MOCLDY    23  14  68 S14       29.69F WCI  11
WASKISH        MOCLDY    25  18  74 S5        29.72F WCI  19
CROOKSTON      CLOUDY    25  21  86 SW16      29.74F WCI  12
STEPHEN NDAWN    N/A     21  18  86 SW9         N/A  WCI  11
GREENBUSH NDAW   N/A     23  19  86 SW17        N/A  WCI   9
$$
  *****  WEATHER ACROSS CENTRAL AND WEST MINNESOTA  *****

CITY           SKY/WX    TMP DP  RH WIND       PRES   REMARKS
FOSSTON        CLOUDY    25  19  80 S18G24    29.72S WCI  11
BEMIDJI        CLOUDY    24  18  78 S10G17    29.73F WCI  13
PARK RAPIDS    CLOUDY    24  18  77 S13       29.75F WCI  12
ELBOW LAKE     LGT SNOW  24  21  90 S24G30    29.76F WCI   8
WADENA         CLOUDY    21  18  86 S12       29.77F WCI   9
DETROIT LAKES  CLOUDY    28  23  80 S14       29.74F WCI  17
MOORHEAD       CLOUDY    27  25  93 S17G23    29.74F WCI  14
FERGUS FALLS   CLOUDY    25  19  80 S18G25    29.79F WCI  11
MORRIS MN      MIX PCPN  25  21  86 S17       29.78F WCI  11
STAPLES        CLOUDY    21  18  86 S15       29.80F WCI   8
$$
  *****  WEATHER ELSEWHERE ACROSS MINNESOTA  *****

CITY           SKY/WX    TMP DP  RH WIND       PRES   REMARKS
DULUTH         CLOUDY    20   5  52 S15       29.87F WCI   6
INTRNTL FALLS  CLOUDY    24  11  57 S9G18     29.74F WCI  14
ELY            CLOUDY    21   5  49 SW14      29.81F WCI   8
CLOQUET        CLOUDY    19   7  58 S8        29.87F WCI   9
WHEATON        LGT SNOW  23  21  93 SE17G26   29.77F WCI   9
BRAINERD       NOT AVBL
HIBBING        CLOUDY    21   6  52 VRB7G20   29.83F WCI  12
ALEXANDRIA     LGT SNOW  23  19  85 S18       29.81F FOG     WCI   9
SAINT CLOUD    CLOUDY    21  15  78 S9        29.89F WCI  11
MINNEAPOLIS    CLOUDY    22  11  62 SE8       29.94F WCI  12
$$

  *****  WEATHER ACROSS SOUTH DAKOTA  *****

CITY           SKY/WX    TMP DP  RH WIND       PRES   REMARKS
SIOUX FALLS    CLOUDY    26  19  74 SE9       29.77F WCI  17
BROOKINGS      NOT AVBL
WATERTOWN      LGT SNOW  25  21  85 S12       29.72F FOG     WCI  14
HURON          CLOUDY    30  20  66 SE9       29.72F WCI  22
SISSETON         N/A     26  23  88 S13       29.73F WCI  15
ABERDEEN       CLOUDY    30  22  72 S14       29.70F WCI  19
MITCHELL         N/A     29  19  66 SE12      29.74F WCI  19
PIERRE         LGT SNOW  31  30  96 W5        29.67F VSB 3/4
MOBRIDGE       CLOUDY    25  18  74 N28G38    29.73R WCI   9
RAPID CITY     LGT SNOW  23  20  88 N35G44    29.73R FOG     WCI   4
$$

  *****  SOME WEATHER IN NEARBY STATES *****

CITY           SKY/WX    TMP DP  RH WIND       PRES   REMARKS
GLASGOW MT     MOCLDY    10  -2  58 N21G31    30.13R WCI  -9
GREAT FALLS MT CLOUDY    10   6  84 N7        30.17R WCI  -1
CHEYENNE WY    CLEAR     38  19  46 W15G23    29.54R
SCOTTSBLUFF NE LGT SNOW  30  27  88 CALM      29.58F FOG
OMAHA NE       CLOUDY    32  22  66 S15       29.80F WCI  22
DES MOINES IA  CLOUDY    30  21  69 SE14      29.91F WCI  19
DAVENPORT IA   MIX PCPN  26  17  68 SE16      30.05F WCI  14
CHICAGO IL     CLOUDY    26  17  68 SE9       30.16F WCI  17
EAU CLAIRE WI  CLOUDY    21  14  74 SE6       30.00F WCI  13
LA CROSSE WI   CLOUDY    26  15  63 SE6       30.03F WCI  19
$$

  *****  SOME NATIONAL WEATHER *****

CITY           SKY/WX    TMP DP  RH WIND       PRES   REMARKS
LA GUARDIA NY  CLEAR     26  11  52 NW9       30.38F WCI  17
RALEIGH NC     MOCLDY    41  30  65 E9        30.36S
ATLANTA GA     CLOUDY    52  46  80 CALM      30.21F
NEW ORLEANS LA FOG       66  65  96 S5        30.14F VSB 1/16
OKLAHOMA CITY  CLOUDY    37  36  93 S16G25    29.97F FOG
ALBUQUERQUE NM CLOUDY    42  33  70 NE3       29.97F
SALT LAKE CITY PTCLDY    33  31  92 S8        29.77F
LOS ANGELES CA HVY RAIN  51  47  86 SE5       29.98S FOG
BOISE ID       CLOUDY    35  24  64 NW12      29.86R
SEATTLE WA     CLEAR     43  33  68 S3        30.15R
$$

*** WEATHER ACROSS MANITOBA...SASKATCHEWAN AND ONTARIO ***
                ***ONTARIO***

CITY           SKY/WX    TMP DP  RH WIND       PRES   REMARKS
GERALDTON      MOCLDY    10   7  85 S7        29.89F WCI   0
THUNDER BAY    CLOUDY    10   9  92 NE5       29.92F WCI   2
SIOUX LOOKOUT  FLURRIES  21   7  53 S10       29.68F WCI  10
TORONTO        PTCLDY    10   5  79 W3        30.34F
BIG TROUT LK   PTCLDY    12   3  67 S7        29.60F WCI   2
PICKLE LAKE    NOT AVBL
DRYDEN         CLOUDY    21  10  63 S15       29.67F WCI   8
KENORA         FLURRIES  23  14  68 SW17      29.64F WCI   9
$$
                *** MANITOBA***

CITY           SKY/WX    TMP DP  RH WIND       PRES   REMARKS
BRANDON        PTCLDY     9   3  78 NW16      29.84R WCI  -9
DAUPHIN        FLURRIES  10   1  67 NW20G26   29.83R WCI  -8
ISLAND LAKE    LGT SNOW  18  14  86 S3        29.48F
PILOT MOUND      N/A     12   9  85 NW25G36     N/A  WCI  -8
THE PAS        MOCLDY     0  -9  65 NW22G29   29.85S WCI -23
THOMPSON       FLURRIES  -4 -13  65 NW16G31   29.69  WCI -25
WINNIPEG       FLURRIES  19  16  86 NW22G28   29.71R WCI   3
LYNN LAKE      FLURRIES -13 -22  64 NW21G32   29.82F WCI -39
CHURCHILL      CLOUDY    -8 -13  77 E17       29.83R WCI -31
GILLAM         SNOW       5   0  78 N15G22    29.54R VSB 1/4 WCI -13
$$
                ***SASKATCHEWAN***

CITY           SKY/WX    TMP DP  RH WIND       PRES   REMARKS
ESTEVAN        PTCLDY     3  -4  72 NW18G25   29.98S WCI -17
KINDERSLEY     PTCLDY     0  -9  65 NW13G18   30.16R WCI -18
LLOYDMINSTER   CLEAR     -4 -11  71 NW10G17   30.18R WCI -21
PRINCE ALBERT  PTCLDY    -4 -15  59 NW17      30.07R WCI -26
REGINA         FLURRIES   0  -8  71 W14       30.04R WCI -19
YORKTON        CLOUDY     1  -6  71 NW21G29   29.90R WCI -20
N. BATTLEFORD  MOCLDY     0  -6  78 NW16G22   30.17R WCI -21
LA RONGE       PTCLDY    -8 -17  65 NW13G20   30.05S WCI -28
SASKATOON      PTCLDY    -2 -11  65 NW18      30.12R WCI -24
SWIFT CURRENT  CLEAR      0  -6  78 NW13      30.09R WCI -18
$$
NOTE: THESE ARE AUTOMATED STATIONS WITH LIMITED QUALITY CONTROL
      "FAIR" INDICATES FEW OR NO CLOUDS BELOW 12,000 FEET WITH NO
      SIGNIFICANT WEATHER AND/OR OBSTRUCTIONS TO VISIBILITY.
      SKY/WX - SKY CONDITION AND SIGNIFICANT WEATHER.
      TMP - AIR TEMPERATURE.    DP   - DEWPOINT TEMPERATURE.
      RH  - RELATIVE HUMIDITY.  PRES - PRESSURE.
      HX  - HEAT INDEX.         WCI  - WIND CHILL INDEX.
$


USA.gov is the U.S. government's official web portal to all federal, state and local government web resources and services.